contact:dominique.lefevre@mio.osupytheas.fr, maurice.libes@osupytheas.fr, didier.mallarino@osupytheas.fr
Project:EMSO http://www.emso-fr.org/EMSO-France
Depth: 2436.0 m
Title:EMSO Ligure Ouest : Data MII capteur AQUADOPP
Date,Latitude,Longitude,X_East,Y_North,Z_Up,Amplitude_X,Amplitude_Y,Amplitude_Z,Batterie,SoundSpeed,Heading,Pitch,Roll,Pressure,TIS,Speed,Direction
, degrees North, degrees East, m.s-1, m.s-1,m.s-1, 1, 1, 1, Volt, m.s-1, degree, degree, degree, dbar, degree_C, m.s-1, degree
2022-02-05T00:04:03,42.805,6.029,-0.024,-0.003,-0.012,101.0,102.0,101.0,13.4,1505.2,328.6,-0.8,1.8,2470.416,13.28,0.024,262.9
2022-02-05T00:07:03,42.805,6.029,-0.029,-0.016,-0.048,103.0,101.0,101.0,13.4,1505.2,327.9,-0.7,1.8,2470.407,13.28,0.033,241.1
2022-02-05T00:10:03,42.805,6.029,-0.022,-0.016,-0.033,101.0,102.0,101.0,13.4,1505.2,323.3,-0.8,1.8,2470.385,13.28,0.027,234.0
2022-02-05T00:13:03,42.805,6.029,-0.051,-0.017,-0.048,100.0,102.0,101.0,13.4,1505.2,329.6,-0.7,1.8,2470.432,13.28,0.053,251.6
2022-02-05T00:16:03,42.805,6.029,-0.031,-0.035,-0.058,102.0,101.0,101.0,13.3,1505.2,326.0,-0.7,1.8,2470.353,13.28,0.046,221.5
2022-02-05T00:19:03,42.805,6.029,-0.024,-0.022,-0.022,103.0,102.0,99.0,13.4,1505.2,325.4,-0.8,1.8,2470.378,13.28,0.032,227.5
2022-02-05T00:22:03,42.805,6.029,-0.028,-0.016,-0.041,103.0,100.0,100.0,13.3,1505.2,325.4,-0.8,1.8,2470.356,13.28,0.032,240.3
2022-02-05T00:25:03,42.805,6.029,-0.026,-0.022,-0.016,102.0,104.0,101.0,13.4,1505.2,325.6,-0.8,1.8,2470.369,13.28,0.034,229.8
2022-02-05T00:28:03,42.805,6.029,-0.028,-0.039,-0.045,101.0,101.0,101.0,13.3,1505.2,326.3,-0.8,1.8,2470.392,13.28,0.048,215.7
2022-02-05T00:31:03,42.805,6.029,-0.044,-0.009,-0.046,102.0,102.0,100.0,13.4,1505.2,328.0,-0.8,1.8,2470.372,13.28,0.044,258.4
2022-02-05T00:34:03,42.805,6.029,-0.042,-0.018,-0.029,102.0,101.0,100.0,13.4,1505.2,328.5,-0.8,1.8,2470.353,13.28,0.045,246.8
2022-02-05T00:37:03,42.805,6.029,-0.026,-0.014,-0.014,103.0,101.0,101.0,13.4,1505.2,328.6,-0.7,1.8,2470.37,13.28,0.029,241.7
2022-02-05T00:40:03,42.805,6.029,-0.044,-0.009,-0.009,102.0,101.0,101.0,13.4,1505.2,328.2,-0.8,1.8,2470.399,13.28,0.044,258.4
2022-02-05T00:43:03,42.805,6.029,-0.013,-0.026,-0.035,102.0,101.0,101.0,13.3,1505.2,329.0,-0.7,1.8,2470.393,13.28,0.029,206.6
2022-02-05T00:46:03,42.805,6.029,-0.017,-0.021,-0.022,102.0,102.0,101.0,13.3,1505.2,326.5,-0.7,1.8,2470.43,13.28,0.027,219.0
2022-02-05T00:49:03,42.805,6.029,-0.032,-0.02,-0.029,101.0,100.0,101.0,13.4,1505.2,323.7,-0.7,1.8,2470.394,13.28,0.037,238.0
2022-02-05T00:52:03,42.805,6.029,-0.022,-0.023,-0.009,102.0,101.0,101.0,13.4,1505.2,330.4,-0.7,1.9,2470.378,13.28,0.031,223.7
2022-02-05T00:55:03,42.805,6.029,-0.055,-0.017,-0.03,101.0,101.0,100.0,13.3,1505.2,328.9,-0.7,1.8,2470.405,13.28,0.057,252.8
2022-02-05T00:58:03,42.805,6.029,-0.045,-0.025,-0.021,102.0,102.0,100.0,13.4,1505.2,326.2,-0.8,1.8,2470.394,13.28,0.051,240.9
2022-02-05T01:04:03,42.805,6.029,-0.051,-0.03,-0.016,104.0,103.0,104.0,13.3,1505.2,329.6,-0.8,1.8,2470.441,13.28,0.059,239.5
2022-02-05T01:07:03,42.805,6.029,-0.033,-0.031,-0.028,103.0,102.0,102.0,13.4,1505.2,330.5,-0.7,1.8,2470.424,13.28,0.045,226.8
2022-02-05T01:10:03,42.805,6.029,-0.038,-0.024,-0.018,102.0,102.0,101.0,13.4,1505.2,328.2,-0.8,1.8,2470.412,13.28,0.044,237.7
2022-02-05T01:13:03,42.805,6.029,-0.019,-0.027,-0.035,102.0,101.0,101.0,13.3,1505.2,327.9,-0.7,1.8,2470.391,13.28,0.033,215.1
2022-02-05T01:16:03,42.805,6.029,-0.055,-0.013,-0.047,101.0,101.0,103.0,13.4,1505.2,324.2,-0.7,1.8,2470.408,13.28,0.056,256.7
2022-02-05T01:19:03,42.805,6.029,-0.041,-0.024,-0.007,102.0,102.0,102.0,13.4,1505.2,328.4,-0.8,1.8,2470.402,13.28,0.047,239.7
2022-02-05T01:22:03,42.805,6.029,-0.033,-0.014,-0.027,103.0,102.0,101.0,13.4,1505.2,328.9,-0.8,1.8,2470.399,13.28,0.035,247.0
2022-02-05T01:25:03,42.805,6.029,-0.034,-0.004,-0.021,102.0,102.0,102.0,13.4,1505.2,326.5,-0.7,1.8,2470.442,13.28,0.034,263.3
2022-02-05T01:28:03,42.805,6.029,-0.049,-0.011,-0.01,103.0,102.0,102.0,13.4,1505.2,326.1,-0.8,1.8,2470.398,13.28,0.05,257.3
2022-02-05T01:31:03,42.805,6.029,-0.012,-0.009,-0.02,103.0,103.0,101.0,13.4,1505.2,328.3,-0.7,1.8,2470.383,13.28,0.015,233.1
2022-02-05T01:34:03,42.805,6.029,-0.04,-0.014,-0.047,103.0,100.0,102.0,13.3,1505.2,327.5,-0.7,1.8,2470.361,13.28,0.042,250.7
2022-02-05T01:37:03,42.805,6.029,-0.026,-0.01,0.001,102.0,101.0,101.0,13.4,1505.2,329.3,-0.7,1.8,2470.392,13.28,0.027,249.0
2022-02-05T01:40:03,42.805,6.029,-0.052,-0.024,-0.027,103.0,102.0,101.0,13.4,1505.2,327.0,-0.7,1.8,2470.404,13.28,0.057,245.2
2022-02-05T01:43:03,42.805,6.029,-0.031,-0.023,-0.006,103.0,102.0,102.0,13.4,1505.2,325.8,-0.8,1.8,2470.427,13.28,0.038,233.4
2022-02-05T01:46:03,42.805,6.029,-0.032,-0.021,-0.035,102.0,104.0,101.0,13.4,1505.2,323.3,-0.8,1.8,2470.435,13.28,0.038,236.7
2022-02-05T01:49:03,42.805,6.029,-0.037,-0.004,-0.005,103.0,101.0,100.0,13.4,1505.2,328.3,-0.7,1.8,2470.447,13.28,0.037,263.8
2022-02-05T01:52:03,42.805,6.029,-0.033,-0.009,-0.01,103.0,102.0,100.0,13.4,1505.2,331.2,-0.8,1.8,2470.444,13.28,0.034,254.7
2022-02-05T01:55:03,42.805,6.029,-0.047,-0.003,-0.02,100.0,100.0,102.0,13.4,1505.2,328.9,-0.8,1.8,2470.411,13.28,0.047,266.4
2022-02-05T01:58:03,42.805,6.029,-0.036,0.002,-0.039,102.0,101.0,101.0,13.4,1505.2,328.2,-0.8,1.8,2470.416,13.28,0.036,273.2
2022-02-05T02:04:03,42.805,6.029,-0.023,-0.022,-0.044,102.0,101.0,102.0,13.4,1505.2,325.1,-0.8,1.8,2470.431,13.28,0.031,226.3
2022-02-05T02:07:03,42.805,6.029,-0.039,-0.01,-0.028,103.0,101.0,102.0,13.4,1505.2,325.0,-0.7,1.8,2470.408,13.28,0.04,255.6
2022-02-05T02:10:03,42.805,6.029,-0.044,-0.008,-0.019,103.0,101.0,102.0,13.4,1505.2,324.6,-0.8,1.8,2470.375,13.28,0.044,259.7
2022-02-05T02:13:03,42.805,6.029,-0.051,-0.012,-0.053,102.0,102.0,102.0,13.4,1505.2,326.6,-0.7,1.8,2470.372,13.28,0.052,256.8
2022-02-05T02:16:03,42.805,6.029,-0.051,-0.003,-0.026,103.0,102.0,101.0,13.4,1505.2,329.4,-0.8,1.8,2470.438,13.28,0.051,266.6
2022-02-05T02:19:03,42.805,6.029,-0.02,-0.018,-0.036,101.0,104.0,100.0,13.3,1505.2,328.5,-0.8,1.8,2470.443,13.28,0.026,228.0
2022-02-05T02:22:03,42.805,6.029,-0.028,-0.003,-0.005,101.0,103.0,101.0,13.3,1505.2,328.6,-0.8,1.8,2470.403,13.28,0.028,263.9
2022-02-05T02:25:03,42.805,6.029,-0.049,-0.003,-0.022,103.0,100.0,102.0,13.3,1505.2,327.3,-0.8,1.8,2470.388,13.28,0.049,266.5
2022-02-05T02:28:03,42.805,6.029,-0.04,0.0,-0.026,102.0,101.0,102.0,13.4,1505.2,325.7,-0.7,1.8,2470.348,13.28,0.04,270.0
2022-02-05T02:31:03,42.805,6.029,-0.042,0.008,0.006,102.0,101.0,101.0,13.4,1505.2,324.5,-0.7,1.8,2470.407,13.28,0.042,280.8
2022-02-05T02:34:03,42.805,6.029,-0.038,-0.006,-0.022,102.0,102.0,101.0,13.4,1505.2,327.2,-0.8,1.8,2470.39,13.28,0.038,261.0
2022-02-05T02:37:03,42.805,6.029,-0.024,-0.011,-0.028,103.0,103.0,101.0,13.4,1505.2,327.0,-0.7,1.8,2470.401,13.28,0.026,245.4
2022-02-05T02:40:03,42.805,6.029,-0.045,0.017,-0.017,101.0,103.0,102.0,13.4,1505.2,330.9,-0.8,1.8,2470.385,13.28,0.048,290.7
2022-02-05T02:43:03,42.805,6.029,-0.048,-0.012,-0.04,103.0,101.0,101.0,13.4,1505.2,325.1,-0.7,1.8,2470.368,13.28,0.049,256.0
2022-02-05T02:46:03,42.805,6.029,-0.012,-0.019,-0.017,103.0,102.0,101.0,13.4,1505.2,324.0,-0.7,1.8,2470.423,13.28,0.022,212.3
2022-02-05T02:49:03,42.805,6.029,-0.05,0.003,-0.003,102.0,103.0,101.0,13.4,1505.2,329.9,-0.7,1.8,2470.35,13.28,0.05,273.4
2022-02-05T02:52:03,42.805,6.029,-0.051,0.009,-0.003,102.0,101.0,102.0,13.4,1505.2,323.4,-0.8,1.8,2470.364,13.28,0.051,280.0
2022-02-05T02:55:03,42.805,6.029,-0.041,0.005,-0.008,104.0,103.0,101.0,13.3,1505.2,331.0,-0.7,1.8,2470.344,13.28,0.041,277.0
2022-02-05T02:58:03,42.805,6.029,-0.042,-0.021,-0.061,103.0,101.0,101.0,13.4,1505.2,331.5,-0.7,1.8,2470.347,13.28,0.046,243.4
2022-02-05T03:04:03,42.805,6.029,-0.043,-0.015,-0.032,102.0,102.0,101.0,13.4,1505.2,326.6,-0.8,1.8,2470.385,13.28,0.045,250.8
2022-02-05T03:07:03,42.805,6.029,-0.035,0.011,-0.013,103.0,102.0,102.0,13.4,1505.2,326.3,-0.8,1.8,2470.387,13.28,0.036,287.4
2022-02-05T03:10:03,42.805,6.029,-0.031,-0.021,-0.012,101.0,102.0,102.0,13.4,1505.2,327.2,-0.8,1.8,2470.391,13.28,0.037,235.9
2022-02-05T03:13:03,42.805,6.029,-0.031,-0.004,-0.033,103.0,102.0,102.0,13.3,1505.2,327.3,-0.7,1.8,2470.304,13.28,0.031,262.7
2022-02-05T03:16:03,42.805,6.029,-0.04,0.008,0.0,103.0,102.0,100.0,13.4,1505.2,327.8,-0.7,1.8,2470.319,13.28,0.04,281.3
2022-02-05T03:19:03,42.805,6.029,-0.043,0.004,-0.009,103.0,103.0,100.0,13.3,1505.2,329.0,-0.8,1.8,2470.307,13.28,0.043,275.3
2022-02-05T03:22:03,42.805,6.029,-0.052,0.003,-0.009,102.0,103.0,101.0,13.4,1505.2,331.4,-0.8,1.8,2470.29,13.28,0.052,273.3
2022-02-05T03:25:03,42.805,6.029,-0.049,-0.018,-0.008,103.0,101.0,103.0,13.4,1505.2,330.2,-0.8,1.8,2470.261,13.28,0.052,249.8
2022-02-05T03:28:03,42.805,6.029,-0.041,-0.015,-0.026,103.0,101.0,102.0,13.4,1505.2,329.3,-0.7,1.8,2470.288,13.28,0.043,249.9
2022-02-05T03:31:03,42.805,6.029,-0.06,0.0,-0.039,103.0,102.0,101.0,13.4,1505.2,329.2,-0.8,1.8,2470.266,13.28,0.06,270.0
2022-02-05T03:34:03,42.805,6.029,-0.018,0.002,-0.025,103.0,101.0,103.0,13.3,1505.2,329.1,-0.8,1.8,2470.273,13.28,0.018,276.3
2022-02-05T03:37:03,42.805,6.029,-0.024,0.002,0.014,102.0,103.0,101.0,13.4,1505.2,326.3,-0.7,1.8,2470.296,13.28,0.024,274.8
2022-02-05T03:40:03,42.805,6.029,-0.053,-0.005,-0.025,102.0,100.0,103.0,13.4,1505.2,329.3,-0.8,1.8,2470.223,13.28,0.053,264.6
2022-02-05T03:43:03,42.805,6.029,-0.038,0.006,-0.018,102.0,103.0,101.0,13.4,1505.2,329.0,-0.7,1.8,2470.191,13.28,0.038,279.0
2022-02-05T03:46:03,42.805,6.029,-0.053,0.007,-0.03,101.0,101.0,101.0,13.3,1505.2,327.8,-0.7,1.8,2470.232,13.28,0.053,277.5
2022-02-05T03:49:03,42.805,6.029,-0.062,0.023,-0.005,100.0,100.0,101.0,13.4,1505.2,329.0,-0.7,1.8,2470.197,13.28,0.066,290.3
2022-02-05T03:52:03,42.805,6.029,-0.069,0.013,-0.002,102.0,100.0,101.0,13.4,1505.2,328.9,-0.7,1.8,2470.154,13.28,0.07,280.7
2022-02-05T03:55:03,42.805,6.029,-0.022,-0.018,-0.029,101.0,101.0,102.0,13.4,1505.2,327.4,-0.7,1.8,2470.212,13.28,0.028,230.7
2022-02-05T03:58:03,42.805,6.029,-0.044,0.002,-0.021,102.0,102.0,101.0,13.4,1505.2,325.7,-0.8,1.8,2470.14,13.28,0.044,272.6
2022-02-05T04:04:03,42.805,6.029,-0.06,0.011,-0.026,102.0,101.0,100.0,13.4,1505.2,325.2,-0.7,1.8,2470.181,13.28,0.06,280.4
2022-02-05T04:07:03,42.805,6.029,-0.042,0.006,-0.017,101.0,102.0,102.0,13.4,1505.2,329.6,-0.8,1.8,2470.098,13.28,0.042,278.1
2022-02-05T04:10:03,42.805,6.029,-0.068,0.009,0.001,101.0,100.0,101.0,13.4,1505.2,326.4,-0.8,1.8,2470.084,13.28,0.068,277.5
2022-02-05T04:13:03,42.805,6.029,-0.047,-0.003,-0.036,101.0,99.0,101.0,13.3,1505.2,323.8,-0.7,1.8,2470.088,13.28,0.047,266.4
2022-02-05T04:16:03,42.805,6.029,-0.058,0.009,-0.018,100.0,101.0,100.0,13.3,1505.2,329.1,-0.8,1.8,2470.103,13.28,0.058,278.8
2022-02-05T04:19:03,42.805,6.029,-0.04,0.002,-0.01,100.0,101.0,100.0,13.4,1505.2,327.8,-0.7,1.8,2470.086,13.28,0.04,272.9
2022-02-05T04:22:03,42.805,6.029,-0.049,-0.006,-0.028,99.0,100.0,105.0,13.4,1505.2,328.5,-0.8,1.8,2470.076,13.28,0.049,263.0
2022-02-05T04:25:03,42.805,6.029,-0.062,0.002,0.0,99.0,101.0,100.0,13.4,1505.2,325.1,-0.7,1.8,2470.06,13.28,0.062,271.8
2022-02-05T04:28:03,42.805,6.029,-0.064,0.014,0.005,101.0,101.0,99.0,13.4,1505.2,326.5,-0.8,1.9,2469.99,13.28,0.065,282.3
2022-02-05T04:31:03,42.805,6.029,-0.047,-0.01,-0.038,101.0,102.0,101.0,13.4,1505.2,324.3,-0.8,1.8,2470.026,13.28,0.048,258.0
2022-02-05T04:34:03,42.805,6.029,-0.057,-0.023,-0.047,101.0,101.0,101.0,13.4,1505.2,325.0,-0.8,1.9,2470.045,13.28,0.061,248.0
2022-02-05T04:37:03,42.805,6.029,-0.041,-0.001,-0.01,102.0,101.0,101.0,13.3,1505.2,326.1,-0.8,1.8,2469.98,13.28,0.041,268.6
2022-02-05T04:40:03,42.805,6.029,-0.037,-0.002,-0.016,101.0,102.0,100.0,13.3,1505.2,326.3,-0.8,1.9,2469.989,13.28,0.037,266.9
2022-02-05T04:43:03,42.805,6.029,-0.063,0.0,-0.023,101.0,101.0,100.0,13.4,1505.2,328.9,-0.7,1.8,2469.998,13.28,0.062,270.0
2022-02-05T04:46:03,42.805,6.029,-0.072,0.017,-0.024,101.0,100.0,100.0,13.4,1505.2,326.3,-0.7,1.8,2470.014,13.28,0.073,283.3
2022-02-05T04:49:03,42.805,6.029,-0.032,0.005,-0.003,102.0,100.0,99.0,13.4,1505.2,324.3,-0.7,1.8,2469.965,13.28,0.032,278.9
2022-02-05T04:52:03,42.805,6.029,-0.045,-0.017,-0.017,102.0,99.0,101.0,13.4,1505.2,327.0,-0.8,1.8,2469.997,13.28,0.048,249.3
2022-02-05T04:55:03,42.805,6.029,-0.036,-0.006,0.002,103.0,99.0,102.0,13.4,1505.2,328.4,-0.7,1.8,2469.994,13.28,0.036,260.5
2022-02-05T04:58:03,42.805,6.029,-0.068,-0.009,-0.018,101.0,99.0,102.0,13.3,1505.2,329.3,-0.8,1.8,2469.984,13.28,0.068,262.5
2022-02-05T05:04:03,42.805,6.029,-0.068,-0.013,-0.034,100.0,100.0,101.0,13.4,1505.2,328.9,-0.7,1.9,2469.994,13.28,0.069,259.2
2022-02-05T05:07:03,42.805,6.029,-0.06,0.007,-0.048,101.0,102.0,100.0,13.3,1505.2,327.3,-0.8,1.8,2469.967,13.28,0.06,276.7
2022-02-05T05:10:03,42.805,6.029,-0.071,0.006,-0.028,101.0,101.0,100.0,13.3,1505.2,329.3,-0.8,1.8,2469.982,13.28,0.071,274.8
2022-02-05T05:13:03,42.805,6.029,-0.041,-0.003,-0.052,103.0,98.0,100.0,13.4,1505.2,323.6,-0.7,1.8,2469.944,13.28,0.041,265.8
2022-02-05T05:16:03,42.805,6.029,-0.034,-0.002,-0.02,101.0,101.0,101.0,13.3,1505.2,324.1,-0.7,1.8,2469.982,13.28,0.034,266.6
2022-02-05T05:19:03,42.805,6.029,-0.029,-0.002,-0.008,100.0,103.0,100.0,13.4,1505.2,329.5,-0.8,1.8,2469.962,13.28,0.029,266.1
2022-02-05T05:22:03,42.805,6.029,-0.038,0.001,-0.04,100.0,100.0,101.0,13.4,1505.2,327.6,-0.7,1.8,2469.922,13.28,0.038,271.5
2022-02-05T05:25:03,42.805,6.029,-0.048,-0.002,-0.001,100.0,102.0,101.0,13.4,1505.2,328.8,-0.8,1.8,2469.952,13.28,0.048,267.6
2022-02-05T05:28:03,42.805,6.029,-0.038,-0.005,0.005,100.0,102.0,100.0,13.3,1505.2,324.6,-0.8,1.8,2469.956,13.28,0.038,262.5
2022-02-05T05:31:03,42.805,6.029,-0.043,-0.002,-0.004,100.0,100.0,100.0,13.3,1505.2,324.0,-0.7,1.8,2469.953,13.28,0.043,267.3
2022-02-05T05:34:03,42.805,6.029,-0.048,-0.008,-0.013,100.0,101.0,101.0,13.4,1505.2,328.9,-0.8,1.8,2469.962,13.28,0.048,260.5
2022-02-05T05:37:03,42.805,6.029,-0.057,-0.007,0.009,103.0,99.0,101.0,13.4,1505.2,326.6,-0.8,1.8,2470.0,13.28,0.057,263.0
2022-02-05T05:40:03,42.805,6.029,-0.059,-0.003,-0.015,100.0,102.0,101.0,13.4,1505.2,326.5,-0.8,1.8,2469.952,13.28,0.059,267.1
2022-02-05T05:43:03,42.805,6.029,-0.069,0.016,-0.005,100.0,99.0,100.0,13.4,1505.2,326.9,-0.8,1.8,2469.989,13.28,0.07,283.1
2022-02-05T05:46:03,42.805,6.029,-0.073,0.011,-0.009,101.0,100.0,100.0,13.4,1505.2,325.0,-0.8,1.8,2469.945,13.28,0.073,278.6
2022-02-05T05:49:03,42.805,6.029,-0.067,0.014,-0.035,101.0,100.0,100.0,13.4,1505.2,331.2,-0.8,1.8,2469.977,13.28,0.068,281.8
2022-02-05T05:52:03,42.805,6.029,-0.055,0.01,-0.016,101.0,100.0,100.0,13.4,1505.2,328.4,-0.7,1.8,2469.974,13.28,0.055,280.3
2022-02-05T05:55:03,42.805,6.029,-0.068,0.004,-0.042,102.0,99.0,99.0,13.3,1505.2,326.7,-0.8,1.8,2469.99,13.28,0.068,273.4
2022-02-05T05:58:03,42.805,6.029,-0.037,0.014,-0.035,101.0,100.0,101.0,13.4,1505.2,325.7,-0.7,1.8,2469.971,13.28,0.039,290.7
2022-02-05T06:04:03,42.805,6.029,-0.055,0.002,-0.026,100.0,100.0,100.0,13.4,1505.2,324.0,-0.7,1.8,2470.009,13.28,0.055,272.1
2022-02-05T06:07:03,42.805,6.029,-0.071,-0.005,-0.029,99.0,101.0,100.0,13.4,1505.2,326.6,-0.8,1.8,2469.967,13.28,0.071,266.0
2022-02-05T06:10:03,42.805,6.029,-0.044,-0.009,-0.012,101.0,100.0,101.0,13.4,1505.2,330.2,-0.7,1.8,2469.971,13.28,0.044,258.4
2022-02-05T06:13:03,42.805,6.029,-0.041,-0.008,0.012,101.0,101.0,101.0,13.4,1505.2,328.1,-0.7,1.8,2469.961,13.28,0.041,259.0
2022-02-05T06:16:03,42.805,6.029,-0.059,-0.01,-0.025,101.0,102.0,100.0,13.4,1505.2,326.7,-0.7,1.8,2469.997,13.28,0.059,260.4
2022-02-05T06:19:03,42.805,6.029,-0.079,0.011,-0.035,100.0,99.0,100.0,13.4,1505.2,328.3,-0.7,1.8,2469.968,13.28,0.079,277.9
2022-02-05T06:22:03,42.805,6.029,-0.06,-0.011,-0.025,99.0,101.0,101.0,13.4,1505.2,325.3,-0.7,1.8,2469.935,13.28,0.06,259.6
2022-02-05T06:25:03,42.805,6.029,-0.064,-0.006,-0.031,101.0,100.0,100.0,13.4,1505.2,327.9,-0.8,1.8,2469.97,13.28,0.064,264.6
2022-02-05T06:28:03,42.805,6.029,-0.037,0.003,0.014,100.0,99.0,100.0,13.3,1505.2,323.6,-0.7,1.8,2469.982,13.28,0.037,274.6
2022-02-05T06:31:03,42.805,6.029,-0.075,0.005,-0.021,100.0,100.0,100.0,13.3,1505.2,323.3,-0.8,1.8,2469.955,13.28,0.075,273.8
2022-02-05T06:34:03,42.805,6.029,-0.06,0.0,-0.027,101.0,100.0,100.0,13.3,1505.2,324.3,-0.8,1.8,2469.908,13.28,0.06,270.0
2022-02-05T06:37:03,42.805,6.029,-0.049,-0.019,-0.034,101.0,101.0,100.0,13.3,1505.2,327.4,-0.8,1.8,2469.953,13.28,0.052,248.8
2022-02-05T06:40:03,42.805,6.029,-0.037,-0.018,-0.038,100.0,99.0,100.0,13.4,1505.2,327.5,-0.8,1.8,2469.891,13.28,0.041,244.1
2022-02-05T06:43:03,42.805,6.029,-0.036,-0.03,-0.073,101.0,100.0,100.0,13.3,1505.2,325.9,-0.8,1.8,2469.929,13.28,0.046,230.2
2022-02-05T06:46:03,42.805,6.029,-0.056,-0.014,-0.048,101.0,100.0,101.0,13.3,1505.2,331.5,-0.7,1.8,2469.913,13.28,0.057,256.0
2022-02-05T06:49:03,42.805,6.029,-0.045,0.005,-0.032,103.0,99.0,100.0,13.3,1505.2,330.6,-0.8,1.8,2469.929,13.28,0.045,276.3
2022-02-05T06:52:03,42.805,6.029,-0.069,0.004,-0.049,103.0,100.0,100.0,13.4,1505.2,331.2,-0.7,1.8,2469.943,13.28,0.069,273.3
2022-02-05T06:55:03,42.805,6.029,-0.037,-0.02,-0.035,100.0,100.0,100.0,13.3,1505.2,327.2,-0.8,1.8,2469.939,13.28,0.042,241.6
2022-02-05T06:58:03,42.805,6.029,-0.051,0.005,-0.016,101.0,101.0,101.0,13.4,1505.2,324.6,-0.8,1.9,2469.93,13.28,0.051,275.6
2022-02-05T07:04:03,42.805,6.029,-0.056,0.021,0.013,101.0,101.0,100.0,13.4,1505.2,325.6,-0.7,1.8,2469.976,13.28,0.059,290.6
2022-02-05T07:07:03,42.805,6.029,-0.058,0.01,-0.049,101.0,100.0,100.0,13.3,1505.2,328.7,-0.8,1.8,2469.97,13.28,0.058,279.8
2022-02-05T07:10:03,42.805,6.029,-0.031,0.015,-0.009,100.0,100.0,102.0,13.4,1505.2,327.2,-0.8,1.8,2469.996,13.28,0.034,295.8
2022-02-05T07:13:03,42.805,6.029,-0.054,-0.007,-0.033,102.0,99.0,100.0,13.4,1505.2,329.5,-0.8,1.8,2469.973,13.28,0.054,262.6
2022-02-05T07:16:03,42.805,6.029,-0.046,-0.02,-0.026,100.0,103.0,100.0,13.4,1505.2,328.6,-0.7,1.8,2470.021,13.28,0.05,246.5
2022-02-05T07:19:03,42.805,6.029,-0.037,-0.015,-0.012,99.0,101.0,102.0,13.4,1505.2,331.1,-0.8,1.8,2470.007,13.28,0.039,247.9
2022-02-05T07:22:03,42.805,6.029,-0.043,-0.005,-0.031,101.0,100.0,102.0,13.3,1505.2,323.8,-0.8,1.8,2470.012,13.28,0.043,263.4
2022-02-05T07:25:03,42.805,6.029,-0.049,-0.019,-0.048,103.0,102.0,100.0,13.3,1505.2,329.7,-0.8,1.8,2470.056,13.28,0.052,248.8
2022-02-05T07:28:03,42.805,6.029,-0.066,-0.009,-0.029,101.0,100.0,102.0,13.3,1505.2,323.6,-0.8,1.8,2470.032,13.28,0.066,262.2
2022-02-05T07:31:03,42.805,6.029,-0.037,-0.007,-0.028,100.0,102.0,100.0,13.3,1505.2,328.9,-0.8,1.8,2470.066,13.28,0.037,259.3
2022-02-05T07:34:03,42.805,6.029,-0.044,-0.003,-0.032,100.0,101.0,100.0,13.4,1505.2,327.8,-0.7,1.8,2470.083,13.28,0.044,266.1
2022-02-05T07:37:03,42.805,6.029,-0.042,-0.004,-0.014,102.0,100.0,100.0,13.3,1505.2,330.2,-0.8,1.8,2470.105,13.28,0.042,264.6
2022-02-05T07:40:03,42.805,6.029,-0.038,0.003,-0.016,102.0,100.0,101.0,13.4,1505.2,329.6,-0.8,1.8,2470.129,13.28,0.038,274.5
2022-02-05T07:43:03,42.805,6.029,-0.058,0.007,0.003,102.0,101.0,100.0,13.4,1505.2,325.6,-0.8,1.8,2470.157,13.28,0.058,276.9
2022-02-05T07:46:03,42.805,6.029,-0.065,0.011,-0.023,101.0,100.0,101.0,13.4,1505.2,329.7,-0.7,1.8,2470.183,13.28,0.065,279.6
2022-02-05T07:49:03,42.805,6.029,-0.034,-0.018,-0.041,101.0,101.0,100.0,13.3,1505.2,323.9,-0.8,1.8,2470.216,13.28,0.038,242.1
2022-02-05T07:52:03,42.805,6.029,-0.074,-0.001,-0.025,102.0,100.0,101.0,13.4,1505.2,325.3,-0.7,1.8,2470.253,13.28,0.074,269.2
2022-02-05T07:55:03,42.805,6.029,-0.056,0.002,-0.03,102.0,102.0,101.0,13.4,1505.2,330.5,-0.7,1.8,2470.284,13.28,0.056,272.0
2022-02-05T07:58:03,42.805,6.029,-0.025,-0.003,-0.022,99.0,104.0,102.0,13.4,1505.2,328.1,-0.7,1.9,2470.319,13.28,0.025,263.2
2022-02-05T08:04:03,42.805,6.029,-0.046,-0.01,-0.06,102.0,101.0,100.0,13.4,1505.2,328.8,-0.8,1.8,2470.441,13.28,0.047,257.7
2022-02-05T08:07:03,42.805,6.029,-0.032,-0.004,-0.017,101.0,103.0,101.0,13.3,1505.2,329.7,-0.7,1.8,2470.38,13.28,0.032,262.9
2022-02-05T08:10:03,42.805,6.029,-0.042,-0.004,-0.012,101.0,101.0,101.0,13.4,1505.2,327.3,-0.7,1.8,2470.431,13.28,0.042,264.6
2022-02-05T08:13:03,42.805,6.029,-0.054,-0.017,-0.06,103.0,101.0,101.0,13.3,1505.2,325.2,-0.7,1.8,2470.471,13.28,0.056,252.5
2022-02-05T08:16:03,42.805,6.029,-0.059,-0.004,-0.038,101.0,102.0,101.0,13.4,1505.2,328.9,-0.8,1.8,2470.473,13.28,0.059,266.1
2022-02-05T08:19:03,42.805,6.029,-0.052,0.009,-0.004,102.0,103.0,100.0,13.4,1505.2,332.1,-0.8,1.8,2470.467,13.28,0.052,279.8
2022-02-05T08:22:03,42.805,6.029,-0.063,-0.017,-0.038,103.0,102.0,100.0,13.4,1505.2,327.8,-0.8,1.8,2470.526,13.28,0.065,254.9
2022-02-05T08:25:03,42.805,6.029,-0.048,-0.009,-0.035,103.0,99.0,103.0,13.4,1505.2,327.5,-0.8,1.8,2470.554,13.28,0.048,259.4
2022-02-05T08:28:03,42.805,6.029,-0.059,-0.021,-0.034,101.0,103.0,101.0,13.3,1505.2,329.0,-0.7,1.8,2470.561,13.28,0.062,250.4
2022-02-05T08:31:03,42.805,6.029,-0.049,-0.034,-0.038,103.0,100.0,101.0,13.4,1505.2,323.6,-0.7,1.8,2470.549,13.28,0.059,235.2
2022-02-05T08:34:03,42.805,6.029,-0.034,-0.01,-0.003,102.0,99.0,103.0,13.4,1505.2,323.3,-0.8,1.8,2470.606,13.28,0.035,253.6
2022-02-05T08:37:03,42.805,6.029,-0.071,0.005,0.004,103.0,100.0,101.0,13.3,1505.2,325.0,-0.7,1.8,2470.621,13.28,0.071,274.0
2022-02-05T08:40:03,42.805,6.029,-0.041,-0.027,-0.058,103.0,100.0,101.0,13.3,1505.2,327.2,-0.8,1.8,2470.586,13.28,0.049,236.6
2022-02-05T08:43:03,42.805,6.029,-0.066,-0.001,-0.042,103.0,101.0,100.0,13.4,1505.2,329.3,-0.7,1.8,2470.626,13.28,0.066,269.1
2022-02-05T08:46:03,42.805,6.029,-0.056,0.0,-0.035,102.0,101.0,102.0,13.4,1505.2,325.5,-0.8,1.8,2470.649,13.28,0.056,270.0
2022-02-05T08:49:03,42.805,6.029,-0.086,-0.016,-0.04,102.0,101.0,101.0,13.4,1505.2,325.6,-0.8,1.8,2470.681,13.28,0.087,259.5
2022-02-05T08:52:03,42.805,6.029,-0.052,-0.003,-0.04,101.0,102.0,100.0,13.4,1505.2,325.3,-0.7,1.8,2470.676,13.28,0.052,266.7
2022-02-05T08:55:03,42.805,6.029,-0.043,-0.003,-0.012,101.0,102.0,100.0,13.4,1505.2,325.6,-0.8,1.8,2470.714,13.28,0.043,266.0
2022-02-05T08:58:03,42.805,6.029,-0.071,0.003,-0.031,101.0,102.0,101.0,13.3,1505.2,328.3,-0.7,1.8,2470.655,13.28,0.071,272.4
2022-02-05T09:04:03,42.805,6.029,-0.06,-0.013,-0.042,102.0,101.0,101.0,13.4,1505.2,328.3,-0.8,1.8,2470.779,13.28,0.061,257.8
2022-02-05T09:07:03,42.805,6.029,-0.057,-0.001,-0.04,104.0,102.0,102.0,13.4,1505.2,328.3,-0.7,1.8,2470.734,13.28,0.057,269.0
2022-02-05T09:10:03,42.805,6.029,-0.062,-0.011,-0.026,104.0,102.0,101.0,13.4,1505.2,323.4,-0.8,1.8,2470.746,13.28,0.062,259.9
2022-02-05T09:13:03,42.805,6.029,-0.051,-0.008,-0.058,103.0,101.0,102.0,13.4,1505.2,329.3,-0.8,1.8,2470.767,13.28,0.051,261.1
2022-02-05T09:16:03,42.805,6.029,-0.056,0.002,-0.003,103.0,103.0,102.0,13.4,1505.2,328.7,-0.7,1.8,2470.732,13.28,0.056,272.0
2022-02-05T09:19:03,42.805,6.029,-0.057,-0.016,-0.024,102.0,103.0,101.0,13.4,1505.2,328.7,-0.7,1.8,2470.754,13.28,0.059,254.3
2022-02-05T09:22:03,42.805,6.029,-0.062,-0.013,-0.043,102.0,101.0,102.0,13.4,1505.2,327.2,-0.8,1.8,2470.786,13.28,0.063,258.2
2022-02-05T09:25:03,42.805,6.029,-0.063,-0.007,-0.038,101.0,103.0,101.0,13.4,1505.2,324.8,-0.8,1.9,2470.805,13.28,0.063,263.7
2022-02-05T09:28:03,42.805,6.029,-0.051,0.015,-0.021,100.0,102.0,101.0,13.4,1505.2,324.5,-0.7,1.8,2470.763,13.28,0.053,286.4
2022-02-05T09:31:03,42.805,6.029,-0.058,-0.005,-0.006,102.0,102.0,101.0,13.4,1505.2,324.6,-0.8,1.8,2470.772,13.28,0.058,265.1
2022-02-05T09:34:03,42.805,6.029,-0.043,-0.001,-0.02,102.0,101.0,102.0,13.4,1505.2,330.5,-0.8,1.8,2470.799,13.28,0.043,268.7
2022-02-05T09:37:03,42.805,6.029,-0.046,0.015,-0.001,102.0,101.0,101.0,13.4,1505.2,327.5,-0.8,1.8,2470.777,13.28,0.048,288.1
2022-02-05T09:40:03,42.805,6.029,-0.044,0.012,-0.012,101.0,101.0,101.0,13.4,1505.2,325.5,-0.8,1.8,2470.79,13.28,0.045,285.3
2022-02-05T09:43:03,42.805,6.029,-0.038,0.008,-0.015,102.0,101.0,101.0,13.4,1505.2,328.6,-0.8,1.8,2470.796,13.28,0.038,281.9
2022-02-05T09:46:03,42.805,6.029,-0.047,0.0,-0.032,102.0,102.0,101.0,13.3,1505.2,329.0,-0.8,1.8,2470.768,13.28,0.047,270.0
2022-02-05T09:49:03,42.805,6.029,-0.06,-0.005,-0.018,101.0,101.0,101.0,13.3,1505.2,325.9,-0.7,1.8,2470.791,13.28,0.06,265.2
2022-02-05T09:52:03,42.805,6.029,-0.032,-0.014,-0.011,102.0,102.0,101.0,13.4,1505.2,329.6,-0.8,1.8,2470.781,13.28,0.034,246.4